<?xml version="1.0"?>
<gpx xmlns="http://www.topografix.com/GPX/1/1" xmlns:xsi="http://www.w3.org/2001/XMLSchema-instance" version="1.1" creator="GPX RubyGem 1.0.0 -- http://dougfales.github.io/gpx/" xsi:schemaLocation="http://www.topografix.com/GPX/1/1 http://www.topografix.com/GPX/1/1/gpx.xsd">
  <metadata>
    <name/>
    <time>2026-05-08T13:40:46+00:00</time>
    <bound minlat="90.0" minlon="180.0" maxlat="-90.0" maxlon="-180.0"/>
  </metadata>
  <trk>
    <name/>
    <trkseg>
      <trkpt lat="45.542424" lon="12.632437">
        <time>1970-01-01T00:00:00+00:00</time>
        <ele>-1.0</ele>
      </trkpt>
      <trkpt lat="45.542331" lon="12.632231">
        <time>1970-01-01T00:00:00+00:00</time>
        <ele>-1.0</ele>
      </trkpt>
      <trkpt lat="45.54239" lon="12.631933">
        <time>1970-01-01T00:00:00+00:00</time>
        <ele>-1.0</ele>
      </trkpt>
      <trkpt lat="45.542514" lon="12.631426">
        <time>1970-01-01T00:00:00+00:00</time>
        <ele>-1.0</ele>
      </trkpt>
      <trkpt lat="45.54257" lon="12.631454">
        <time>1970-01-01T00:00:00+00:00</time>
        <ele>-1.0</ele>
      </trkpt>
      <trkpt lat="45.542599" lon="12.631445">
        <time>1970-01-01T00:00:00+00:00</time>
        <ele>-1.0</ele>
      </trkpt>
      <trkpt lat="45.542632" lon="12.631401">
        <time>1970-01-01T00:00:00+00:00</time>
        <ele>-1.0</ele>
      </trkpt>
      <trkpt lat="45.542606" lon="12.631294">
        <time>1970-01-01T00:00:00+00:00</time>
        <ele>-1.0</ele>
      </trkpt>
      <trkpt lat="45.54261" lon="12.631234">
        <time>1970-01-01T00:00:00+00:00</time>
        <ele>-1.0</ele>
      </trkpt>
      <trkpt lat="45.542677" lon="12.630876">
        <time>1970-01-01T00:00:00+00:00</time>
        <ele>0.0</ele>
      </trkpt>
      <trkpt lat="45.542808" lon="12.630691">
        <time>1970-01-01T00:00:00+00:00</time>
        <ele>0.0</ele>
      </trkpt>
      <trkpt lat="45.542836" lon="12.630626">
        <time>1970-01-01T00:00:00+00:00</time>
        <ele>0.0</ele>
      </trkpt>
      <trkpt lat="45.543056" lon="12.630474">
        <time>1970-01-01T00:00:00+00:00</time>
        <ele>0.0</ele>
      </trkpt>
      <trkpt lat="45.543535" lon="12.630332">
        <time>1970-01-01T00:00:00+00:00</time>
        <ele>0.0</ele>
      </trkpt>
      <trkpt lat="45.544688" lon="12.630107">
        <time>1970-01-01T00:00:00+00:00</time>
        <ele>-1.0</ele>
      </trkpt>
      <trkpt lat="45.544861" lon="12.630123">
        <time>1970-01-01T00:00:00+00:00</time>
        <ele>-1.0</ele>
      </trkpt>
      <trkpt lat="45.54509" lon="12.630071">
        <time>1970-01-01T00:00:00+00:00</time>
        <ele>0.0</ele>
      </trkpt>
      <trkpt lat="45.545145" lon="12.630058">
        <time>1970-01-01T00:00:00+00:00</time>
        <ele>0.0</ele>
      </trkpt>
      <trkpt lat="45.545235" lon="12.629971">
        <time>1970-01-01T00:00:00+00:00</time>
        <ele>0.0</ele>
      </trkpt>
      <trkpt lat="45.545894" lon="12.629758">
        <time>1970-01-01T00:00:00+00:00</time>
        <ele>-1.0</ele>
      </trkpt>
      <trkpt lat="45.546569" lon="12.629731">
        <time>1970-01-01T00:00:00+00:00</time>
        <ele>-1.0</ele>
      </trkpt>
      <trkpt lat="45.546802" lon="12.629797">
        <time>1970-01-01T00:00:00+00:00</time>
        <ele>-1.0</ele>
      </trkpt>
      <trkpt lat="45.547191" lon="12.629944">
        <time>1970-01-01T00:00:00+00:00</time>
        <ele>-1.0</ele>
      </trkpt>
      <trkpt lat="45.547589" lon="12.630225">
        <time>1970-01-01T00:00:00+00:00</time>
        <ele>-1.0</ele>
      </trkpt>
      <trkpt lat="45.549437" lon="12.631881">
        <time>1970-01-01T00:00:00+00:00</time>
        <ele>0.0</ele>
      </trkpt>
      <trkpt lat="45.550316" lon="12.632631">
        <time>1970-01-01T00:00:00+00:00</time>
        <ele>0.0</ele>
      </trkpt>
      <trkpt lat="45.550828" lon="12.633141">
        <time>1970-01-01T00:00:00+00:00</time>
        <ele>0.0</ele>
      </trkpt>
      <trkpt lat="45.550953" lon="12.633239">
        <time>1970-01-01T00:00:00+00:00</time>
        <ele>0.0</ele>
      </trkpt>
      <trkpt lat="45.551112" lon="12.633411">
        <time>1970-01-01T00:00:00+00:00</time>
        <ele>-1.0</ele>
      </trkpt>
      <trkpt lat="45.552743" lon="12.634716">
        <time>1970-01-01T00:00:00+00:00</time>
        <ele>0.0</ele>
      </trkpt>
      <trkpt lat="45.557255" lon="12.638787">
        <time>1970-01-01T00:00:00+00:00</time>
        <ele>-1.0</ele>
      </trkpt>
      <trkpt lat="45.558949" lon="12.640325">
        <time>1970-01-01T00:00:00+00:00</time>
        <ele>0.0</ele>
      </trkpt>
      <trkpt lat="45.559084" lon="12.640468">
        <time>1970-01-01T00:00:00+00:00</time>
        <ele>1.0</ele>
      </trkpt>
      <trkpt lat="45.559166" lon="12.640459">
        <time>1970-01-01T00:00:00+00:00</time>
        <ele>1.0</ele>
      </trkpt>
      <trkpt lat="45.559415" lon="12.640681">
        <time>1970-01-01T00:00:00+00:00</time>
        <ele>1.0</ele>
      </trkpt>
      <trkpt lat="45.559613" lon="12.64083">
        <time>1970-01-01T00:00:00+00:00</time>
        <ele>1.0</ele>
      </trkpt>
      <trkpt lat="45.559788" lon="12.641017">
        <time>1970-01-01T00:00:00+00:00</time>
        <ele>2.0</ele>
      </trkpt>
      <trkpt lat="45.55982" lon="12.641053">
        <time>1970-01-01T00:00:00+00:00</time>
        <ele>2.0</ele>
      </trkpt>
      <trkpt lat="45.5599" lon="12.641111">
        <time>1970-01-01T00:00:00+00:00</time>
        <ele>2.0</ele>
      </trkpt>
      <trkpt lat="45.559951" lon="12.641238">
        <time>1970-01-01T00:00:00+00:00</time>
        <ele>2.0</ele>
      </trkpt>
      <trkpt lat="45.560129" lon="12.641564">
        <time>1970-01-01T00:00:00+00:00</time>
        <ele>2.0</ele>
      </trkpt>
      <trkpt lat="45.560353" lon="12.641872">
        <time>1970-01-01T00:00:00+00:00</time>
        <ele>2.0</ele>
      </trkpt>
      <trkpt lat="45.56043" lon="12.641981">
        <time>1970-01-01T00:00:00+00:00</time>
        <ele>2.0</ele>
      </trkpt>
      <trkpt lat="45.560519" lon="12.642114">
        <time>1970-01-01T00:00:00+00:00</time>
        <ele>2.0</ele>
      </trkpt>
      <trkpt lat="45.560549" lon="12.642192">
        <time>1970-01-01T00:00:00+00:00</time>
        <ele>2.0</ele>
      </trkpt>
      <trkpt lat="45.560359" lon="12.642559">
        <time>1970-01-01T00:00:00+00:00</time>
        <ele>2.0</ele>
      </trkpt>
      <trkpt lat="45.560112" lon="12.643057">
        <time>1970-01-01T00:00:00+00:00</time>
        <ele>0.0</ele>
      </trkpt>
      <trkpt lat="45.561166" lon="12.644225">
        <time>1970-01-01T00:00:00+00:00</time>
        <ele>-1.0</ele>
      </trkpt>
      <trkpt lat="45.562175" lon="12.645328">
        <time>1970-01-01T00:00:00+00:00</time>
        <ele>0.0</ele>
      </trkpt>
      <trkpt lat="45.562175" lon="12.645328">
        <time>1970-01-01T00:00:00+00:00</time>
        <ele>0.0</ele>
      </trkpt>
      <trkpt lat="45.561166" lon="12.644225">
        <time>1970-01-01T00:00:00+00:00</time>
        <ele>-1.0</ele>
      </trkpt>
      <trkpt lat="45.560112" lon="12.643057">
        <time>1970-01-01T00:00:00+00:00</time>
        <ele>0.0</ele>
      </trkpt>
      <trkpt lat="45.560359" lon="12.642559">
        <time>1970-01-01T00:00:00+00:00</time>
        <ele>2.0</ele>
      </trkpt>
      <trkpt lat="45.560549" lon="12.642192">
        <time>1970-01-01T00:00:00+00:00</time>
        <ele>2.0</ele>
      </trkpt>
      <trkpt lat="45.560519" lon="12.642114">
        <time>1970-01-01T00:00:00+00:00</time>
        <ele>2.0</ele>
      </trkpt>
      <trkpt lat="45.56043" lon="12.641981">
        <time>1970-01-01T00:00:00+00:00</time>
        <ele>2.0</ele>
      </trkpt>
      <trkpt lat="45.560353" lon="12.641872">
        <time>1970-01-01T00:00:00+00:00</time>
        <ele>2.0</ele>
      </trkpt>
      <trkpt lat="45.560129" lon="12.641564">
        <time>1970-01-01T00:00:00+00:00</time>
        <ele>2.0</ele>
      </trkpt>
      <trkpt lat="45.559951" lon="12.641238">
        <time>1970-01-01T00:00:00+00:00</time>
        <ele>2.0</ele>
      </trkpt>
      <trkpt lat="45.5599" lon="12.641111">
        <time>1970-01-01T00:00:00+00:00</time>
        <ele>2.0</ele>
      </trkpt>
      <trkpt lat="45.55982" lon="12.641053">
        <time>1970-01-01T00:00:00+00:00</time>
        <ele>2.0</ele>
      </trkpt>
      <trkpt lat="45.559788" lon="12.641017">
        <time>1970-01-01T00:00:00+00:00</time>
        <ele>2.0</ele>
      </trkpt>
      <trkpt lat="45.559613" lon="12.64083">
        <time>1970-01-01T00:00:00+00:00</time>
        <ele>1.0</ele>
      </trkpt>
      <trkpt lat="45.559415" lon="12.640681">
        <time>1970-01-01T00:00:00+00:00</time>
        <ele>1.0</ele>
      </trkpt>
      <trkpt lat="45.559166" lon="12.640459">
        <time>1970-01-01T00:00:00+00:00</time>
        <ele>1.0</ele>
      </trkpt>
      <trkpt lat="45.558952" lon="12.640263">
        <time>1970-01-01T00:00:00+00:00</time>
        <ele>0.0</ele>
      </trkpt>
      <trkpt lat="45.552768" lon="12.634665">
        <time>1970-01-01T00:00:00+00:00</time>
        <ele>0.0</ele>
      </trkpt>
      <trkpt lat="45.551195" lon="12.633351">
        <time>1970-01-01T00:00:00+00:00</time>
        <ele>-1.0</ele>
      </trkpt>
      <trkpt lat="45.551144" lon="12.633308">
        <time>1970-01-01T00:00:00+00:00</time>
        <ele>-1.0</ele>
      </trkpt>
      <trkpt lat="45.550994" lon="12.633183">
        <time>1970-01-01T00:00:00+00:00</time>
        <ele>0.0</ele>
      </trkpt>
      <trkpt lat="45.5505" lon="12.632748">
        <time>1970-01-01T00:00:00+00:00</time>
        <ele>0.0</ele>
      </trkpt>
      <trkpt lat="45.547568" lon="12.63001">
        <time>1970-01-01T00:00:00+00:00</time>
        <ele>-1.0</ele>
      </trkpt>
      <trkpt lat="45.547289" lon="12.629804">
        <time>1970-01-01T00:00:00+00:00</time>
        <ele>-1.0</ele>
      </trkpt>
      <trkpt lat="45.547073" lon="12.629704">
        <time>1970-01-01T00:00:00+00:00</time>
        <ele>-1.0</ele>
      </trkpt>
      <trkpt lat="45.54693" lon="12.629663">
        <time>1970-01-01T00:00:00+00:00</time>
        <ele>-1.0</ele>
      </trkpt>
      <trkpt lat="45.546814" lon="12.62963">
        <time>1970-01-01T00:00:00+00:00</time>
        <ele>-1.0</ele>
      </trkpt>
      <trkpt lat="45.54672" lon="12.629608">
        <time>1970-01-01T00:00:00+00:00</time>
        <ele>-1.0</ele>
      </trkpt>
      <trkpt lat="45.546462" lon="12.629552">
        <time>1970-01-01T00:00:00+00:00</time>
        <ele>-1.0</ele>
      </trkpt>
      <trkpt lat="45.546186" lon="12.629547">
        <time>1970-01-01T00:00:00+00:00</time>
        <ele>-1.0</ele>
      </trkpt>
      <trkpt lat="45.54595" lon="12.629578">
        <time>1970-01-01T00:00:00+00:00</time>
        <ele>0.0</ele>
      </trkpt>
      <trkpt lat="45.545684" lon="12.629622">
        <time>1970-01-01T00:00:00+00:00</time>
        <ele>0.0</ele>
      </trkpt>
      <trkpt lat="45.544979" lon="12.629838">
        <time>1970-01-01T00:00:00+00:00</time>
        <ele>0.0</ele>
      </trkpt>
      <trkpt lat="45.54472" lon="12.62991">
        <time>1970-01-01T00:00:00+00:00</time>
        <ele>-1.0</ele>
      </trkpt>
      <trkpt lat="45.543858" lon="12.630153">
        <time>1970-01-01T00:00:00+00:00</time>
        <ele>-1.0</ele>
      </trkpt>
      <trkpt lat="45.543036" lon="12.630416">
        <time>1970-01-01T00:00:00+00:00</time>
        <ele>0.0</ele>
      </trkpt>
      <trkpt lat="45.542725" lon="12.630597">
        <time>1970-01-01T00:00:00+00:00</time>
        <ele>0.0</ele>
      </trkpt>
      <trkpt lat="45.542705" lon="12.630674">
        <time>1970-01-01T00:00:00+00:00</time>
        <ele>0.0</ele>
      </trkpt>
      <trkpt lat="45.542627" lon="12.630791">
        <time>1970-01-01T00:00:00+00:00</time>
        <ele>0.0</ele>
      </trkpt>
      <trkpt lat="45.542547" lon="12.631144">
        <time>1970-01-01T00:00:00+00:00</time>
        <ele>-1.0</ele>
      </trkpt>
      <trkpt lat="45.542514" lon="12.631426">
        <time>1970-01-01T00:00:00+00:00</time>
        <ele>-1.0</ele>
      </trkpt>
      <trkpt lat="45.54239" lon="12.631933">
        <time>1970-01-01T00:00:00+00:00</time>
        <ele>-1.0</ele>
      </trkpt>
      <trkpt lat="45.542331" lon="12.632231">
        <time>1970-01-01T00:00:00+00:00</time>
        <ele>-1.0</ele>
      </trkpt>
      <trkpt lat="45.542424" lon="12.632437">
        <time>1970-01-01T00:00:00+00:00</time>
        <ele>-1.0</ele>
      </trkpt>
    </trkseg>
  </trk>
</gpx>
